Theta_e
312 311 310 309 309 309 308 309 305 307 308 313 315 316 321 324 329 331 333 335 339 342 345 348 350 352 353 353 353 362 361 364 363 361 367 367 366 366 365 364 363 361 361 360
310 311 310 307 309 309 309 309 309 308 308 315 319 322 322 323 325 329 332 336 339 342 344 346 347 351 352 352 353 352 357 354 365 359 365 366 367 364 364 366 365 365 360 360
306 310 309 306 309 310 311 312 310 306 311 317 316 318 321 324 326 330 333 336 338 342 343 346 348 349 351 354 358 354 350 353 356 362 358 361 364 363 363 361 361 360 362 359
307 309 300 310 315 313 311 311 312 312 314 316 319 321 325 329 331 331 334 338 340 343 342 345 347 350 351 352 353 352 354 354 356 353 348 355 359 359 361 361 362 364 360 359
304 304 308 309 311 311 309 309 315 314 316 318 320 324 326 331 334 335 339 340 341 341 341 345 347 349 346 348 349 348 349 349 350 355 346 349 353 353 355 353 352 354 353 354
307 302 299 309 315 317 315 305 318 316 317 318 322 317 326 335 335 337 338 339 338 338 338 340 342 346 342 342 343 340 340 343 344 348 345 350 351 350 347 341 336 335 332 334
306 304 307 314 318 317 304 310 323 322 321 320 320 329 336 336 334 336 336 337 338 337 337 339 337 334 331 332 332 335 339 339 340 342 344 347 345 339 333 330 329 324 323 323
307 304 302 319 316 309 319 322 323 324 323 323 330 334 333 333 335 334 336 335 337 337 337 336 338 335 332 331 334 334 330 331 332 338 338 336 335 328 327 324 321 319 319 318
310 309 320 320 319 322 322 319 322 324 326 328 331 330 329 329 333 334 334 334 335 336 338 339 338 337 331 333 336 332 331 327 327 327 326 326 324 323 322 322 321 321 321 319
314 316 318 318 323 323 324 321 325 329 329 330 331 330 331 333 333 332 333 334 334 333 333 336 337 337 332 330 330 330 328 327 328 326 325 326 325 325 323 322 323 323 323 322
314 317 318 319 322 323 323 324 327 331 331 331 332 330 328 327 330 330 328 330 330 329 328 330 334 337 336 335 333 326 326 327 328 323 319 314 309 310 320 314 315 326 328 328
310 321 320 320 323 323 323 324 328 330 331 333 333 331 327 325 325 327 331 331 329 330 330 331 335 335 336 335 334 332 328 327 327 325 321 320 322 317 303 303 300 301 304 317
317 324 322 324 323 324 324 326 329 331 333 332 332 330 326 327 330 329 333 333 332 332 332 332 333 335 336 335 332 335 331 329 329 329 330 330 328 325 320 312 301 298 298 299
324 322 320 321 321 324 326 327 328 332 332 331 331 331 329 331 333 332 331 331 332 334 334 333 334 334 335 336 335 335 332 318 332 331 330 328 327 327 325 322 320 319 305 309
323 323 323 324 325 325 327 327 327 328 329 329 331 330 330 329 331 331 333 334 334 334 334 335 334 334 337 339 335 333 330 329 330 328 329 327 328 328 328 326 325 322 319 313
324 322 323 323 324 325 325 326 325 326 329 331 331 331 330 330 331 332 332 333 331 330 333 335 336 336 339 337 335 332 331 323 327 327 324 324 324 323 323 323 322 322 322 322
321 320 322 322 323 324 323 326 327 328 329 331 334 335 333 332 331 332 332 332 333 334 334 334 335 338 339 337 334 333 330 325 325 321 319 319 319 320 321 322 322 322 322 320
325 324 324 325 325 324 323 325 327 328 329 332 336 337 335 334 333 334 333 333 333 333 333 335 337 337 337 337 335 330 327 325 322 321 320 319 319 320 320 320 321 321 321 320
326 324 323 324 326 326 326 326 326 328 331 334 335 337 338 338 337 335 335 333 332 332 332 335 330 333 335 334 330 327 325 323 324 323 323 319 320 321 320 320 320 321 321 319
323 326 324 325 327 327 326 328 328 328 331 334 336 338 338 339 340 337 335 332 333 331 336 334 335 333 334 332 327 326 324 324 323 323 323 323 323 323 323 315 321 321 321 321
324 323 324 326 326 327 327 329 328 329 333 334 335 338 340 340 341 339 335 329 333 334 334 330 334 332 332 330 326 325 323 322 321 321 322 321 321 321 322 322 322 322 322 322
325 325 325 326 327 327 329 331 331 332 334 335 336 338 340 341 341 340 340 335 332 319 331 333 333 328 331 325 324 323 324 323 323 323 322 321 322 322 323 323 323 323 323 324
327 326 326 328 328 329 331 331 331 332 334 336 337 338 338 337 338 335 333 341 334 325 331 331 326 320 320 328 325 323 324 324 324 324 324 325 324 324 324 324 324 323 324 324
331 331 330 330 331 330 330 333 332 333 335 337 338 340 339 335 336 338 338 325 322 322 330 329 325 316 316 327 326 325 325 325 325 324 325 313 325 325 325 325 325 325 325 323
329 330 331 330 329 329 333 333 331 331 333 334 335 338 339 338 334 336 336 335 318 325 333 317 315 314 328 327 326 325 326 326 325 325 325 325 324 323 324 324 324 324 324 325
325 323 325 328 327 327 331 330 327 327 327 327 330 332 333 334 336 335 337 328 335 325 333 332 331 329 330 328 326 326 326 327 326 325 323 324 324 324 324 324 324 324 324 323
322 313 322 322 323 323 323 323 323 323 324 327 327 329 332 331 332 329 325 334 335 334 333 333 332 327 331 329 326 326 327 328 321 326 325 324 325 325 324 324 325 325 324 322
Wind_Speed
11 9 2 11 13 6 8 11 14 16 17 15 15 10 11 7 7 8 7 5 5 5 4 5 8 9 10 11 5 10 10 10 11 10 12 11 11 11 9 10 8 7 7 9
11 10 10 11 11 12 14 12 13 14 14 10 7 6 6 8 9 10 7 4 5 1 3 4 4 6 7 13 13 6 11 10 12 9 11 11 11 11 12 9 9 9 10 10
12 9 7 13 13 17 14 14 13 13 11 9 7 9 10 8 10 7 6 4 3 3 4 5 7 5 7 10 10 13 11 9 10 12 11 10 11 10 11 10 10 10 9 9
13 6 13 12 4 7 11 11 11 14 13 9 11 7 9 2 7 3 6 5 4 3 4 3 4 6 5 6 9 10 12 12 11 10 8 9 10 11 9 8 8 5 6 7
12 13 13 12 7 12 6 10 13 13 8 9 11 1 9 6 2 2 9 5 4 5 4 1 2 3 4 4 5 7 7 8 8 9 6 7 9 7 6 6 3 3 2 1
12 13 14 11 11 4 5 14 10 1 2 4 4 9 6 9 3 3 7 6 6 6 5 8 7 2 3 2 4 4 2 1 1 2 3 9 9 8 6 7 6 5 8 7
13 13 14 4 9 3 8 4 4 4 4 6 8 6 10 9 7 6 6 10 8 8 11 10 9 9 11 9 8 6 4 2 3 2 4 6 8 7 8 7 7 7 7 6
15 16 16 13 6 5 6 4 1 6 6 6 5 8 7 7 9 10 11 10 8 8 9 10 11 10 9 9 7 8 7 7 4 3 3 6 9 7 8 8 8 7 6 5
7 4 4 5 2 4 1 4 4 4 5 8 10 7 7 8 9 9 12 10 10 8 7 8 8 7 7 5 6 6 7 8 8 9 9 9 7 10 8 7 5 5 5 4
6 7 8 5 8 3 2 2 1 1 2 5 7 9 11 8 8 7 5 8 7 6 6 5 6 7 6 7 6 6 7 8 6 10 10 9 8 6 8 6 5 4 5 4
7 5 5 5 8 5 4 2 4 4 3 7 9 8 11 9 5 8 8 5 5 7 7 5 2 7 7 8 10 8 7 7 7 8 9 8 8 5 5 5 3 4 5 6
7 14 11 11 9 8 6 6 6 6 10 10 9 9 12 10 4 2 9 7 7 6 6 6 6 7 7 7 4 8 8 5 7 7 6 6 6 7 15 9 5 12 12 9
1 13 9 12 10 9 8 8 9 9 12 11 11 10 13 12 9 7 5 7 7 5 6 6 4 5 6 7 3 5 6 9 8 8 9 8 10 9 9 9 14 14 13 11
7 11 14 13 11 10 9 10 9 10 10 9 10 11 11 6 11 8 8 8 8 8 8 7 7 7 7 7 5 6 8 2 5 7 8 9 8 9 8 8 8 8 6 5
12 12 13 13 13 11 11 12 12 11 10 10 9 8 9 9 9 9 11 10 9 10 11 9 8 8 7 10 9 9 9 6 7 6 5 5 5 7 10 11 9 10 7 6
14 12 18 13 14 13 13 13 12 11 11 10 10 9 8 8 9 10 9 10 12 9 8 6 8 10 8 7 8 7 5 6 4 7 8 8 7 8 7 8 8 8 8 9
14 12 15 16 15 15 13 13 11 11 11 11 12 10 10 9 9 9 9 8 6 7 11 6 7 10 7 9 8 9 6 7 0 7 6 7 6 7 7 8 8 7 8 8
14 14 15 16 15 14 14 13 11 10 10 11 11 11 11 11 10 10 10 10 9 9 9 12 11 7 9 13 11 9 9 9 8 7 6 6 7 7 8 8 8 8 9 5
5 12 13 14 16 15 14 13 12 11 12 10 11 13 12 11 10 9 11 11 11 10 10 10 14 11 10 9 6 8 8 9 8 7 7 7 6 7 6 6 7 7 10 9
1 4 4 7 11 12 12 12 11 11 11 12 12 12 13 13 12 11 11 12 11 9 11 12 13 12 11 10 8 8 9 9 9 8 8 8 8 7 7 5 6 8 7 10
1 2 4 6 8 7 9 8 9 9 10 11 13 14 13 13 13 12 12 10 12 11 11 14 12 11 10 9 10 11 9 9 9 9 9 9 9 8 8 9 7 5 7 7
8 8 7 7 6 8 9 10 9 9 10 10 11 12 12 13 14 14 12 11 10 13 10 11 11 14 10 13 11 11 11 11 9 9 10 9 9 9 8 9 9 8 7 4
6 7 5 9 9 9 9 9 10 11 10 10 10 11 12 12 12 12 13 14 9 14 12 11 13 12 9 12 11 12 13 10 10 9 9 10 10 9 9 8 8 8 6 7
7 6 3 3 5 6 7 5 8 9 8 8 9 10 10 10 11 12 12 13 14 17 14 11 14 17 14 11 12 12 12 11 10 10 9 7 9 9 8 8 8 7 5 2
8 7 6 7 8 6 4 4 5 5 6 7 7 9 11 11 11 11 13 12 17 16 14 9 18 19 14 13 12 12 11 10 10 9 9 8 8 8 8 8 8 8 7 8
7 6 6 7 6 4 1 2 5 5 5 6 7 9 9 8 9 11 10 12 15 15 13 12 12 15 15 14 14 14 13 11 10 9 10 9 10 9 8 6 6 6 6 7
6 5 3 3 5 4 5 5 6 7 6 7 9 8 5 8 9 9 12 12 13 14 14 13 14 16 15 14 14 14 13 12 11 11 11 11 10 8 8 9 8 5 5 7
Wind_Direction
277 285 280 291 298 279 247 283 294 306 312 319 318 353 12 1 322 279 259 268 288 273 205 211 207 213 197 207 228 212 219 207 194 198 198 207 202 199 215 203 209 214 226 219
289 263 226 253 256 263 267 263 272 272 281 283 5 4 313 289 261 259 256 249 235 201 312 310 288 201 198 201 204 197 214 202 195 189 201 211 207 195 204 210 206 205 213 222
251 258 253 242 235 246 250 271 269 272 275 288 330 310 301 255 245 252 249 242 286 115 240 251 248 262 228 212 201 199 199 203 202 191 204 205 209 210 215 204 220 213 211 211
258 157 244 263 339 337 310 297 290 288 288 286 287 289 289 315 288 238 231 34 3 48 36 306 266 236 230 244 216 210 207 196 192 188 168 201 222 211 206 211 228 242 227 229
261 246 256 257 218 222 238 301 304 289 279 313 302 317 244 197 167 325 82 133 145 92 28 301 212 232 195 157 189 205 200 188 174 173 181 153 193 184 180 167 177 191 46 171
235 262 269 302 122 36 339 279 4 213 286 273 273 243 109 104 126 142 134 116 89 68 89 57 9 124 74 140 148 108 93 258 38 157 185 184 172 159 123 86 92 84 78 64
241 253 266 142 109 131 267 31 44 341 288 274 260 37 103 110 135 131 141 124 115 84 80 88 91 81 79 70 48 36 100 108 183 208 178 159 126 109 104 95 92 80 75 62
241 254 257 113 146 265 41 268 281 287 284 287 111 117 129 159 156 154 150 139 116 103 93 96 99 97 95 80 77 74 53 52 33 173 115 103 108 89 92 100 104 98 86 83
281 78 297 178 32 77 336 292 305 311 293 257 118 123 168 163 169 166 140 123 97 98 102 110 109 86 95 69 90 66 69 57 53 70 81 71 93 105 96 94 93 105 107 102
226 231 178 186 108 145 128 327 351 138 189 161 148 155 188 162 166 152 130 119 108 86 87 108 131 115 112 105 94 84 78 68 73 80 79 74 78 82 91 94 96 99 105 106
220 139 147 172 160 170 131 165 128 112 112 101 138 156 93 87 123 144 117 112 125 132 97 74 134 102 120 120 108 107 97 89 84 77 82 79 60 36 76 36 12 157 169 154
227 167 197 166 173 150 163 164 139 140 127 143 136 132 121 107 50 222 129 125 89 60 81 105 134 132 119 116 133 136 134 129 118 117 115 125 117 95 49 43 30 60 70 94
259 141 157 146 151 166 164 153 146 154 136 151 138 153 145 147 169 92 110 112 126 147 140 156 143 132 122 126 149 183 131 148 155 158 153 151 137 129 118 78 66 52 64 65
187 155 133 147 159 161 149 143 148 144 147 151 144 153 161 151 145 156 163 166 173 173 164 161 152 134 153 148 200 154 120 11 156 141 151 148 137 133 134 133 126 115 62 101
153 161 153 162 150 153 156 148 167 159 161 149 144 168 173 167 167 167 164 167 176 176 180 177 151 150 185 163 161 150 163 169 137 136 136 114 132 157 152 150 140 135 139 162
189 193 152 162 160 160 168 173 179 172 173 161 163 170 174 161 161 164 172 164 162 190 191 177 158 162 178 160 166 168 127 37 129 138 160 150 161 155 133 126 148 160 154 136
204 188 153 159 167 169 176 180 196 183 185 180 175 177 175 176 171 168 179 177 194 159 158 194 185 165 170 170 200 184 154 154 115 172 159 154 155 149 152 157 154 151 135 134
210 198 181 167 172 173 173 175 187 184 187 199 180 181 190 188 189 176 184 173 182 179 182 180 176 171 187 208 205 150 168 167 191 172 153 163 157 151 164 156 144 145 120 130
202 201 194 171 176 178 179 180 184 178 170 188 190 193 199 199 196 185 185 185 190 193 190 195 136 190 202 185 236 188 178 173 189 163 171 141 178 173 168 161 160 158 149 153
130 345 84 151 177 175 180 185 188 178 180 188 193 195 198 200 195 192 194 201 202 201 176 184 170 199 200 170 236 238 193 185 187 179 183 182 199 190 182 197 188 180 183 168
251 209 222 153 187 175 173 178 185 185 191 197 199 200 203 202 197 196 198 211 199 201 192 161 192 197 200 185 207 243 202 198 194 192 178 208 190 209 196 184 214 240 194 186
212 231 207 210 204 193 183 177 182 183 194 200 206 203 204 203 199 201 213 217 190 173 194 186 195 205 208 163 207 218 234 198 207 196 189 198 224 198 234 205 196 206 210 200
236 193 231 215 214 212 191 195 180 180 194 203 207 209 209 212 201 203 206 211 233 170 196 202 179 181 157 192 208 223 241 219 214 217 209 199 211 220 221 223 212 224 190 202
85 74 135 205 214 208 195 199 195 175 190 206 217 218 224 218 221 208 215 187 205 164 198 203 162 161 172 211 221 222 231 233 221 227 227 217 213 220 230 235 200 237 205 151
84 86 98 141 161 141 147 178 184 172 185 219 218 219 227 235 246 214 210 212 166 177 196 170 157 163 190 211 214 226 228 232 238 235 239 250 224 233 229 226 224 204 201 195
46 57 78 32 45 15 333 218 253 254 212 212 198 200 216 223 228 250 217 221 182 188 197 180 179 185 202 209 214 214 220 221 222 230 248 223 235 227 205 216 221 206 222 215
101 4 61 73 64 4 11 340 306 282 272 263 263 247 220 209 215 234 239 223 203 184 213 201 186 195 207 210 214 214 214 216 216 217 213 240 220 215 233 199 215 221 222 239